| time (UTC) | temp F | wind direction | speed MPH | gust MPH | rain 1hr in | rain 24hr in | rain mn in | humidity % | barometer mb |
| 20260508131608 | 73 | 307 | 2.0 | 7.0 | 0.00 | 0.00 | 0.00 | 39 | 1015.5 |
| 20260508130056 | 73 | 303 | 1.0 | 6.0 | 0.00 | 0.00 | 0.00 | 40 | 1015.6 |
| 20260508124555 | 72 | 281 | 3.0 | 9.0 | 0.00 | 0.00 | 0.00 | 43 | 1015.8 |
| 20260508123055 | 72 | 360 | 2.0 | 9.0 | 0.00 | 0.00 | 0.00 | 50 | 1015.9 |
| 20260508121552 | 72 | 277 | 3.0 | 10.0 | 0.00 | 0.00 | 0.00 | 49 | 1016.0 |
| 20260508120050 | 72 | 255 | 2.0 | 8.0 | 0.00 | 0.00 | 0.00 | 47 | 1016.0 |
| 20260508114550 | 71 | 259 | 4.0 | 12.0 | 0.00 | 0.00 | 0.00 | 48 | 1016.1 |
| 20260508113048 | 71 | 314 | 3.0 | 10.0 | 0.00 | 0.00 | 0.00 | 55 | 1016.1 |
| 20260508111551 | 70 | 282 | 2.0 | 9.0 | 0.00 | 0.00 | 0.00 | 51 | 1016.4 |
| 20260508110047 | 70 | 265 | 3.0 | 8.0 | 0.00 | 0.00 | 0.00 | 59 | 1016.5 |
| 20260508104545 | 70 | 245 | 2.0 | 8.0 | 0.00 | 0.00 | 0.00 | 59 | 1016.5 |
| 20260508103045 | 70 | 250 | 3.0 | 8.0 | 0.00 | 0.00 | 0.00 | 62 | 1016.6 |
| 20260508101544 | 69 | 292 | 3.0 | 9.0 | 0.00 | 0.00 | 0.00 | 63 | 1016.7 |
| 20260508100058 | 69 | 319 | 2.0 | 8.0 | 0.00 | 0.00 | 0.00 | 64 | 1016.8 |
| 20260508094544 | 69 | 284 | 4.0 | 8.0 | 0.00 | 0.00 | 0.00 | 64 | 1017.0 |
| 20260508093042 | 68 | 245 | 2.0 | 8.0 | 0.00 | 0.00 | 0.00 | 71 | 1017.1 |
| 20260508091545 | 68 | 288 | 2.0 | 6.0 | 0.00 | 0.00 | 0.00 | 69 | 1017.3 |
| 20260508090106 | 68 | 255 | 2.0 | 5.0 | 0.00 | 0.00 | 0.00 | 61 | 1017.3 |
| 20260508084544 | 67 | 285 | 2.0 | 6.0 | 0.00 | 0.00 | 0.00 | 60 | 1017.4 |
| 20260508083039 | 66 | 280 | 0.0 | 3.0 | 0.00 | 0.00 | 0.00 | 62 | 1017.6 |
| 20260508081553 | 66 | 342 | 0.0 | 6.0 | 0.00 | 0.00 | 0.00 | 69 | 1017.6 |
| 20260508080040 | 67 | 291 | 2.0 | 9.0 | 0.00 | 0.00 | 0.00 | 63 | 1017.8 |
| 20260508074540 | 71 | 197 | 0.0 | 5.0 | 0.00 | 0.00 | 0.00 | 48 | 1017.7 |
| 20260508073040 | 71 | 84 | 1.0 | 7.0 | 0.00 | 0.00 | 0.00 | 35 | 1017.5 |
| 20260508071531 | 71 | 131 | 1.0 | 9.0 | 0.00 | 0.00 | 0.00 | 40 | 1017.3 |
| 20260508070027 | 70 | 107 | 1.0 | 6.0 | 0.00 | 0.00 | 0.00 | 40 | 1017.3 |
| 20260508064527 | 69 | 108 | 2.0 | 6.0 | 0.00 | 0.00 | 0.00 | 42 | 1017.3 |
| 20260508063022 | 68 | 92 | 0.0 | 10.0 | 0.00 | 0.00 | 0.00 | 42 | 1017.3 |
| 20260508061524 | 68 | 124 | 3.0 | 9.0 | 0.00 | 0.00 | 0.00 | 43 | 1017.4 |
| 20260508060017 | 67 | 130 | 2.0 | 6.0 | 0.00 | 0.00 | 0.00 | 44 | 1017.2 |
| 20260508054515 | 66 | 150 | 2.0 | 10.0 | 0.00 | 0.00 | 0.00 | 46 | 1017.3 |
| 20260508053016 | 66 | 155 | 1.0 | 9.0 | 0.00 | 0.00 | 0.00 | 47 | 1017.2 |
| 20260508051509 | 65 | 195 | 1.0 | 14.0 | 0.00 | 0.00 | 0.00 | 47 | 1017.2 |
| 20260508050007 | 64 | 118 | 2.0 | 7.0 | 0.00 | 0.00 | 0.00 | 48 | 1017.1 |
| 20260508044505 | 63 | 88 | 2.0 | 7.0 | 0.00 | 0.00 | 0.00 | 50 | 1017.2 |
| 20260508043100 | 62 | 26 | 1.0 | 5.0 | 0.00 | 0.00 | 0.00 | 52 | 1017.2 |
| 20260508041556 | 61 | 89 | 0.0 | 2.0 | 0.00 | 0.00 | 0.00 | 54 | 1017.0 |
| 20260508040058 | 60 | 81 | 0.0 | 4.0 | 0.00 | 0.00 | 0.00 | 54 | 1017.0 |
| 20260508034553 | 59 | 59 | 0.0 | 3.0 | 0.00 | 0.00 | 0.00 | 55 | 1016.8 |
| 20260508033058 | 59 | 50 | 1.0 | 6.0 | 0.00 | 0.00 | 0.00 | 54 | 1016.6 |
| 20260508031556 | 59 | 63 | 0.0 | 6.0 | 0.00 | 0.00 | 0.00 | 54 | 1016.5 |
| 20260508030058 | 59 | 76 | 1.0 | 5.0 | 0.00 | 0.00 | 0.00 | 55 | 1016.3 |
| 20260508024614 | 59 | 91 | 0.0 | 6.0 | 0.00 | 0.01 | 0.00 | 54 | 1016.2 |
| 20260508023049 | 59 | 91 | 0.0 | 6.0 | 0.00 | 0.01 | 0.00 | 55 | 1016.1 |
| 20260508021550 | 59 | 94 | 0.0 | 6.0 | 0.00 | 0.01 | 0.00 | 56 | 1015.8 |
| 20260508020053 | 59 | 113 | 2.0 | 8.0 | 0.00 | 0.01 | 0.00 | 56 | 1015.8 |
| 20260508014551 | 59 | 98 | 2.0 | 6.0 | 0.00 | 0.01 | 0.00 | 56 | 1015.9 |
| 20260508013043 | 58 | 103 | 1.0 | 9.0 | 0.00 | 0.01 | 0.00 | 58 | 1016.0 |
| 20260508011538 | 57 | 89 | 0.0 | 7.0 | 0.00 | 0.01 | 0.00 | 61 | 1016.0 |
| 20260508010047 | 56 | 71 | 0.0 | 6.0 | 0.00 | 0.01 | 0.00 | 66 | 1016.2 |
| 20260508004542 | 53 | 84 | 1.0 | 6.0 | 0.00 | 0.01 | 0.00 | 77 | 1016.4 |
| 20260508003028 | 52 | 88 | 0.0 | 2.0 | 0.00 | 0.01 | 0.00 | 86 | 1016.4 |
| 20260508001533 | 53 | 136 | 0.0 | 2.0 | 0.00 | 0.01 | 0.00 | 87 | 1016.6 |
| 20260508000024 | 53 | 43 | 0.0 | 2.0 | 0.00 | 0.01 | 0.00 | 88 | 1016.8 |
| 20260507234523 | 53 | 61 | 0.0 | 1.0 | 0.00 | 0.01 | 0.00 | 89 | 1016.7 |
| 20260507233022 | 53 | 65 | 0.0 | 0.0 | 0.00 | 0.01 | 0.00 | 88 | 1016.7 |
| 20260507231522 | 53 | 65 | 0.0 | 0.0 | 0.00 | 0.01 | 0.00 | 88 | 1016.8 |
| 20260507230018 | 54 | 65 | 0.0 | 1.0 | 0.00 | 0.01 | 0.00 | 87 | 1016.8 |
| 20260507224516 | 54 | 342 | 0.0 | 1.0 | 0.00 | 0.01 | 0.00 | 87 | 1016.9 |
| 20260507223016 | 54 | 341 | 0.0 | 3.0 | 0.00 | 0.01 | 0.00 | 87 | 1016.9 |
| 20260507221515 | 54 | 71 | 0.0 | 1.0 | 0.00 | 0.01 | 0.00 | 87 | 1017.1 |
| 20260507220014 | 54 | 71 | 0.0 | 0.0 | 0.00 | 0.01 | 0.00 | 85 | 1017.1 |
| 20260507214511 | 54 | 71 | 0.0 | 1.0 | 0.00 | 0.01 | 0.00 | 85 | 1017.2 |
| 20260507213014 | 54 | 71 | 0.0 | 1.0 | 0.00 | 0.01 | 0.00 | 85 | 1017.3 |
| 20260507211507 | 55 | 71 | 0.0 | 1.0 | 0.00 | 0.01 | 0.00 | 84 | 1017.1 |
| 20260507210005 | 55 | 71 | 0.0 | 0.0 | 0.00 | 0.01 | 0.00 | 84 | 1017.1 |
| 20260507204505 | 55 | 71 | 0.0 | 2.0 | 0.00 | 0.01 | 0.01 | 84 | 1017.1 |
| 20260507203004 | 56 | 332 | 0.0 | 3.0 | 0.00 | 0.01 | 0.01 | 83 | 1017.1 |
| 20260507201504 | 56 | 328 | 0.0 | 2.0 | 0.00 | 0.01 | 0.01 | 82 | 1016.9 |
| 20260507200003 | 56 | 12 | 0.0 | 2.0 | 0.00 | 0.01 | 0.01 | 82 | 1016.9 |
| 20260507194503 | 56 | 15 | 0.0 | 0.0 | 0.00 | 0.01 | 0.01 | 82 | 1017.0 |
| 20260507193003 | 56 | 15 | 0.0 | 1.0 | 0.00 | 0.01 | 0.01 | 82 | 1017.1 |
| 20260507191503 | 56 | 9 | 0.0 | 2.0 | 0.00 | 0.01 | 0.01 | 80 | 1017.1 |
| 20260507190006 | 56 | 61 | 0.0 | 2.0 | 0.00 | 0.01 | 0.01 | 79 | 1017.1 |
| 20260507184502 | 56 | 359 | 0.0 | 4.0 | 0.00 | 0.01 | 0.01 | 77 | 1017.4 |
| 20260507183100 | 56 | 28 | 0.0 | 6.0 | 0.00 | 0.01 | 0.01 | 77 | 1017.5 |
| 20260507181507 | 56 | 313 | 0.0 | 2.0 | 0.00 | 0.01 | 0.01 | 77 | 1017.4 |
| 20260507180011 | 56 | 7 | 0.0 | 3.0 | 0.00 | 0.01 | 0.01 | 77 | 1017.3 |
| 20260507174504 | 56 | 23 | 0.0 | 2.0 | 0.00 | 0.01 | 0.01 | 78 | 1017.3 |
| 20260507173008 | 56 | 73 | 0.0 | 0.0 | 0.00 | 0.01 | 0.01 | 75 | 1017.2 |
| 20260507171502 | 56 | 73 | 0.0 | 1.0 | 0.00 | 0.01 | 0.01 | 71 | 1017.1 |
| 20260507170003 | 57 | 26 | 0.0 | 2.0 | 0.00 | 0.01 | 0.01 | 70 | 1017.0 |
| 20260507164503 | 57 | 344 | 0.0 | 2.0 | 0.00 | 0.01 | 0.01 | 72 | 1016.9 |
| 20260507163001 | 58 | 327 | 0.0 | 2.0 | 0.00 | 0.01 | 0.01 | 75 | 1016.8 |
| 20260507161614 | 59 | 301 | 0.0 | 1.0 | 0.00 | 0.01 | 0.01 | 74 | 1016.8 |
| 20260507160104 | 60 | 297 | 0.0 | 2.0 | 0.00 | 0.01 | 0.01 | 71 | 1016.7 |
| 20260507154559 | 61 | 319 | 1.0 | 4.0 | 0.00 | 0.01 | 0.01 | 69 | 1016.8 |
| 20260507153100 | 63 | 272 | 1.0 | 4.0 | 0.00 | 0.01 | 0.01 | 66 | 1016.9 |
| 20260507151603 | 63 | 330 | 1.0 | 4.0 | 0.00 | 0.01 | 0.01 | 64 | 1016.9 |
| 20260507150057 | 63 | 37 | 0.0 | 7.0 | 0.00 | 0.01 | 0.01 | 64 | 1017.0 |
| 20260507144612 | 63 | 311 | 1.0 | 6.0 | 0.00 | 0.01 | 0.01 | 61 | 1016.9 |
| 20260507143102 | 63 | 304 | 2.0 | 9.0 | 0.00 | 0.01 | 0.01 | 61 | 1016.9 |
| 20260507141600 | 63 | 282 | 0.0 | 6.0 | 0.00 | 0.01 | 0.01 | 61 | 1016.9 |
| 20260507140051 | 64 | 296 | 0.0 | 7.0 | 0.00 | 0.01 | 0.01 | 61 | 1017.0 |
| 20260507134554 | 63 | 336 | 1.0 | 8.0 | 0.00 | 0.01 | 0.01 | 63 | 1016.9 |
| 20260507133134 | 63 | 326 | 2.0 | 11.0 | 0.00 | 0.01 | 0.01 | 63 | 1017.0 |